Location: Newark
(49.8969°N, 3.3422°E)
Time: 00:33:01
(UTC+00:00)

Explorer 7 - Pass Details

Date: 01 February 2020
Orbit: 485 x 679 km, 50.3° (Epoch: 24 February)

Event Time Altitude Azimuth Distance (km) Brightness Sun altitude
Rises 23:09:33 0° 278° (W) 2,570 - -55.6°
Reaches altitude 10° 23:11:44 10° 278° (W) 1,677 - -55.7°
Maximum altitude 23:15:30 90° 228° (SW) 490 - -55.9°
Drops below altitude 10° 23:19:17 10° 100° (E) 1,674 - -56.1°
Sets 23:21:28 0° 100° (E) 2,566 - -56.2°
